Precipitable_Water
1.40 1.42 1.41 1.41 1.42 1.44 1.44 1.44 1.50 1.53 1.56 1.61 1.60 1.64 1.64 1.69 1.74 1.70 1.70 1.72 1.75 1.78 1.79 1.76 1.75 1.76 1.74 1.69 1.66 1.64 1.60 1.55 1.49 1.49 1.50 1.50 1.48 1.49 1.47 1.51 1.59 1.60
1.38 1.42 1.42 1.41 1.40 1.43 1.44 1.44 1.45 1.47 1.51 1.57 1.61 1.63 1.67 1.69 1.71 1.71 1.68 1.67 1.71 1.74 1.82 1.81 1.75 1.75 1.77 1.74 1.70 1.64 1.62 1.58 1.49 1.54 1.47 1.47 1.49 1.49 1.47 1.52 1.58 1.65
1.33 1.38 1.40 1.37 1.35 1.37 1.40 1.45 1.46 1.46 1.47 1.54 1.61 1.62 1.63 1.69 1.69 1.70 1.71 1.67 1.66 1.68 1.72 1.76 1.77 1.76 1.78 1.78 1.78 1.73 1.67 1.59 1.52 1.56 1.51 1.46 1.49 1.46 1.48 1.53 1.58 1.61
1.23 1.29 1.34 1.38 1.39 1.38 1.41 1.43 1.46 1.47 1.48 1.48 1.53 1.60 1.63 1.67 1.69 1.68 1.70 1.70 1.66 1.64 1.65 1.65 1.67 1.73 1.75 1.75 1.74 1.71 1.69 1.65 1.63 1.60 1.51 1.49 1.50 1.50 1.50 1.52 1.55 1.58
1.13 1.20 1.27 1.34 1.39 1.43 1.44 1.42 1.42 1.44 1.45 1.47 1.52 1.57 1.59 1.61 1.63 1.65 1.68 1.70 1.70 1.66 1.64 1.60 1.63 1.65 1.67 1.67 1.69 1.66 1.67 1.66 1.66 1.62 1.53 1.47 1.52 1.53 1.54 1.53 1.51 1.51
1.13 1.16 1.22 1.26 1.32 1.35 1.35 1.34 1.37 1.40 1.44 1.47 1.49 1.53 1.55 1.59 1.61 1.62 1.66 1.68 1.71 1.70 1.67 1.63 1.59 1.61 1.63 1.63 1.63 1.63 1.66 1.65 1.67 1.62 1.54 1.49 1.50 1.55 1.55 1.53 1.52 1.51
1.15 1.13 1.14 1.20 1.23 1.27 1.28 1.30 1.33 1.38 1.44 1.50 1.55 1.52 1.56 1.56 1.57 1.60 1.64 1.69 1.71 1.70 1.68 1.65 1.61 1.58 1.60 1.58 1.56 1.56 1.63 1.65 1.68 1.67 1.58 1.54 1.52 1.50 1.51 1.49 1.50 1.51
1.26 1.23 1.21 1.22 1.20 1.20 1.19 1.24 1.31 1.37 1.44 1.49 1.50 1.56 1.59 1.58 1.59 1.61 1.62 1.65 1.67 1.68 1.68 1.69 1.66 1.61 1.60 1.57 1.51 1.50 1.55 1.64 1.65 1.66 1.65 1.61 1.56 1.48 1.49 1.52 1.54 1.52
1.47 1.37 1.31 1.27 1.23 1.20 1.17 1.20 1.27 1.35 1.42 1.41 1.44 1.51 1.59 1.60 1.61 1.62 1.61 1.62 1.62 1.65 1.66 1.66 1.66 1.63 1.62 1.58 1.54 1.51 1.50 1.55 1.61 1.62 1.62 1.59 1.54 1.51 1.51 1.55 1.53 1.52
1.68 1.57 1.44 1.35 1.29 1.30 1.25 1.25 1.28 1.33 1.39 1.37 1.38 1.44 1.48 1.57 1.62 1.63 1.63 1.62 1.62 1.62 1.63 1.62 1.63 1.62 1.60 1.57 1.54 1.52 1.50 1.50 1.55 1.58 1.59 1.57 1.54 1.54 1.53 1.53 1.51 1.48
1.87 1.79 1.62 1.47 1.39 1.38 1.34 1.33 1.34 1.37 1.40 1.38 1.37 1.35 1.38 1.44 1.52 1.61 1.62 1.62 1.61 1.62 1.61 1.59 1.59 1.59 1.56 1.54 1.53 1.53 1.50 1.49 1.51 1.53 1.55 1.55 1.53 1.52 1.54 1.53 1.51 1.47
1.98 1.94 1.84 1.69 1.55 1.47 1.43 1.39 1.38 1.38 1.39 1.41 1.40 1.34 1.35 1.37 1.40 1.50 1.56 1.58 1.60 1.62 1.62 1.61 1.60 1.57 1.55 1.52 1.50 1.51 1.51 1.50 1.49 1.48 1.50 1.52 1.52 1.52 1.49 1.48 1.44 1.43
2.04 2.03 2.00 1.91 1.79 1.68 1.61 1.51 1.44 1.42 1.41 1.39 1.42 1.39 1.37 1.36 1.38 1.44 1.53 1.55 1.57 1.59 1.58 1.59 1.58 1.57 1.54 1.52 1.49 1.48 1.48 1.47 1.46 1.45 1.44 1.45 1.47 1.47 1.48 1.48 1.46 1.43
2.08 2.08 2.04 1.94 1.84 1.76 1.69 1.66 1.63 1.56 1.53 1.52 1.48 1.39 1.37 1.37 1.38 1.42 1.48 1.53 1.54 1.56 1.58 1.60 1.58 1.55 1.53 1.52 1.50 1.48 1.46 1.44 1.44 1.42 1.41 1.42 1.43 1.45 1.46 1.45 1.45 1.43
2.17 2.18 2.17 2.06 1.95 1.94 1.88 1.76 1.68 1.70 1.70 1.65 1.58 1.49 1.43 1.41 1.45 1.47 1.48 1.48 1.52 1.53 1.54 1.57 1.55 1.54 1.55 1.52 1.49 1.48 1.47 1.42 1.41 1.41 1.40 1.38 1.39 1.41 1.43 1.43 1.43 1.43
2.17 2.19 2.18 2.14 2.06 2.02 1.99 1.95 1.89 1.84 1.85 1.80 1.71 1.62 1.54 1.51 1.50 1.51 1.49 1.47 1.47 1.48 1.50 1.51 1.51 1.53 1.54 1.55 1.56 1.53 1.51 1.47 1.45 1.42 1.39 1.38 1.35 1.35 1.36 1.39 1.40 1.41
2.16 2.14 2.15 2.10 2.11 2.09 2.05 2.04 2.00 1.99 2.02 1.98 1.90 1.81 1.72 1.65 1.59 1.54 1.52 1.51 1.49 1.48 1.46 1.46 1.47 1.50 1.52 1.53 1.55 1.57 1.58 1.54 1.48 1.44 1.43 1.39 1.36 1.32 1.29 1.31 1.34 1.37
2.10 2.13 2.12 2.10 2.12 2.12 2.07 2.03 2.02 2.03 2.09 2.07 2.07 2.00 1.93 1.86 1.74 1.67 1.62 1.58 1.55 1.54 1.51 1.48 1.46 1.49 1.51 1.52 1.52 1.54 1.58 1.58 1.56 1.50 1.47 1.43 1.39 1.36 1.34 1.32 1.32 1.33
2.05 2.05 2.08 2.10 2.12 2.09 2.05 2.02 1.98 2.01 2.08 2.14 2.07 2.09 2.07 1.98 1.91 1.84 1.79 1.75 1.69 1.64 1.62 1.60 1.55 1.55 1.52 1.51 1.49 1.49 1.52 1.56 1.56 1.55 1.50 1.46 1.44 1.41 1.39 1.37 1.36 1.34
2.06 2.03 1.99 2.05 2.08 2.08 2.06 2.00 1.97 1.97 2.05 2.10 2.08 2.08 2.05 2.02 2.00 1.94 1.92 1.91 1.90 1.88 1.84 1.80 1.73 1.67 1.62 1.59 1.57 1.55 1.52 1.49 1.49 1.50 1.49 1.47 1.45 1.43 1.40 1.37 1.36 1.33
1.95 1.96 1.95 1.97 2.00 2.03 2.03 2.00 1.93 1.93 2.02 2.09 2.09 2.05 2.00 1.97 1.97 1.97 1.95 1.94 1.96 1.98 1.96 1.92 1.87 1.81 1.74 1.70 1.67 1.65 1.62 1.57 1.53 1.52 1.49 1.48 1.48 1.47 1.46 1.45 1.44 1.43
1.83 1.82 1.84 1.86 1.88 1.91 1.92 1.91 1.92 1.94 1.99 2.04 2.03 2.00 1.99 1.99 1.98 1.98 1.95 1.92 1.93 1.96 1.96 1.95 1.98 1.98 1.95 1.90 1.84 1.78 1.74 1.69 1.63 1.57 1.53 1.51 1.50 1.51 1.51 1.52 1.53 1.51
1.76 1.74 1.73 1.72 1.72 1.73 1.76 1.83 1.91 1.90 1.93 1.99 1.95 1.94 1.91 1.89 1.91 1.93 1.95 1.93 1.90 1.91 1.93 1.97 2.02 2.08 2.07 2.03 1.99 1.93 1.86 1.81 1.76 1.70 1.64 1.60 1.58 1.60 1.61 1.61 1.61 1.61
1.69 1.70 1.67 1.67 1.66 1.64 1.62 1.66 1.72 1.77 1.79 1.86 1.84 1.85 1.87 1.91 1.94 1.95 1.96 1.94 1.88 1.87 1.94 1.94 1.97 2.03 2.06 2.05 2.05 2.04 2.00 1.93 1.87 1.79 1.75 1.72 1.71 1.73 1.72 1.70 1.70 1.70
1.58 1.57 1.55 1.53 1.52 1.52 1.53 1.55 1.58 1.61 1.66 1.70 1.70 1.74 1.77 1.84 1.92 1.94 1.96 1.97 1.94 1.90 1.94 1.96 1.97 2.02 2.05 2.03 2.01 2.03 2.04 2.01 1.97 1.91 1.85 1.83 1.80 1.77 1.79 1.77 1.76 1.76
1.42 1.39 1.40 1.40 1.40 1.41 1.42 1.44 1.48 1.50 1.53 1.58 1.63 1.67 1.69 1.71 1.75 1.80 1.81 1.85 1.92 1.98 2.00 1.98 1.95 2.01 2.07 2.09 2.08 2.08 2.09 2.04 2.00 1.94 1.91 1.92 1.91 1.85 1.81 1.83 1.83 1.82
Wind_Speed
14 13 13 12 11 11 11 10 9 9 8 8 7 7 7 6 6 6 6 6 6 5 5 5 5 5 5 5 5 5 5 5 4 5 5 5 5 6 5 5 5 5
15 14 13 12 12 12 12 11 10 10 9 9 8 7 7 7 7 6 6 6 6 6 5 5 5 5 5 5 5 5 5 5 5 5 5 5 6 6 6 6 6 6
16 15 14 13 12 12 12 12 11 11 10 10 9 8 8 8 7 7 7 7 6 6 6 6 6 6 5 5 5 5 5 5 5 5 5 5 6 6 6 6 6 6
17 16 15 14 13 13 12 12 12 12 11 11 10 10 9 9 8 8 8 8 7 6 6 6 6 6 6 5 5 5 5 5 5 5 5 6 6 6 6 6 6 6
18 17 16 16 15 14 13 13 13 13 13 12 12 11 10 10 9 9 9 9 8 7 7 7 6 6 6 6 6 5 5 5 5 6 6 6 6 6 6 7 7 7
18 18 18 17 16 15 14 14 14 13 13 13 12 12 11 11 11 10 10 10 9 8 8 7 7 7 7 6 6 6 6 6 6 6 6 6 6 7 7 7 7 7
18 18 18 18 17 16 16 15 14 14 14 14 13 13 13 12 12 11 11 11 10 9 9 8 8 8 7 7 7 7 7 7 6 6 6 6 7 7 7 7 7 7
17 18 18 18 18 18 17 16 15 15 14 14 14 14 14 13 13 12 12 12 11 10 10 9 9 8 8 8 8 8 8 7 7 7 7 7 7 7 7 7 7 7
18 18 18 18 19 19 18 17 17 16 15 15 15 14 15 14 14 13 13 13 12 12 11 11 10 9 9 9 9 9 9 8 8 8 8 8 8 8 7 7 8 8
19 19 18 19 19 19 19 19 18 17 16 16 15 15 15 15 15 14 14 14 13 13 13 12 11 11 10 10 10 10 10 9 9 9 9 9 9 8 8 8 8 8
21 20 19 19 19 19 19 19 19 18 17 16 16 16 16 16 16 15 15 15 14 14 13 13 13 12 12 11 11 10 10 10 10 10 10 10 9 9 9 9 9 9
22 21 20 20 20 19 19 19 19 19 18 17 17 17 17 17 17 16 16 16 15 15 14 14 14 13 13 12 12 11 11 11 11 11 11 11 11 10 10 10 10 10
23 22 21 21 20 20 19 19 19 19 19 18 17 17 17 17 17 17 17 16 16 16 16 15 15 14 14 13 13 13 12 12 12 12 12 12 12 12 12 11 11 11
24 23 22 22 21 21 20 20 19 19 19 19 18 18 17 17 17 17 17 17 17 17 17 16 16 16 15 14 14 14 13 13 13 13 13 13 13 13 13 13 13 12
24 24 24 23 23 22 21 20 20 19 19 19 19 18 18 17 17 17 17 17 17 17 17 17 17 17 16 16 15 15 15 15 14 14 14 14 14 14 14 14 14 14
23 23 24 24 23 22 22 21 21 20 19 19 19 19 19 18 18 18 18 18 18 18 18 18 18 18 18 18 17 17 16 16 16 16 15 15 15 15 15 15 15 15
21 21 23 24 24 23 22 22 21 21 20 19 19 19 19 19 18 18 18 18 18 18 18 18 18 18 19 19 19 18 18 17 17 17 17 17 16 16 16 16 15 15
17 18 20 22 22 22 21 21 21 21 20 19 18 19 19 19 19 19 18 18 18 18 18 19 19 19 19 20 20 20 19 19 19 18 18 18 18 18 17 17 17 17
13 14 16 18 19 20 20 20 19 20 19 18 18 18 19 19 19 19 19 19 18 18 18 18 18 18 19 19 20 20 20 20 19 19 19 19 19 19 19 19 18 18
12 12 13 14 16 17 18 18 18 18 18 17 18 18 18 18 19 19 19 19 19 19 18 18 18 17 17 18 19 19 20 20 20 20 20 20 20 20 20 20 20 20
11 12 12 13 13 14 15 16 16 17 17 17 17 17 17 18 18 18 19 19 20 20 20 19 19 18 18 18 18 18 19 20 20 20 20 20 20 21 21 21 21 21
10 11 11 11 12 12 13 13 14 15 16 16 16 17 17 18 18 18 19 19 20 20 20 21 20 20 19 19 18 18 18 19 19 20 20 21 21 21 21 21 21 21
10 10 10 11 11 12 12 12 12 13 14 15 16 16 17 18 18 19 19 19 20 20 20 21 21 21 21 20 19 19 19 19 19 20 20 20 21 21 21 21 21 21
12 12 12 12 12 12 12 12 12 13 13 14 14 15 15 16 17 18 19 19 20 20 21 21 22 22 22 22 21 20 20 20 20 20 20 21 21 21 21 22 22 22
14 14 14 14 14 14 13 13 13 13 14 14 14 14 14 14 15 15 16 17 18 18 19 20 21 22 22 23 23 23 22 22 22 22 22 22 22 22 22 22 23 23
15 15 15 15 15 14 14 14 14 14 15 15 14 14 14 14 14 14 14 15 15 16 17 18 19 20 20 22 22 23 23 24 24 24 23 23 23 23 23 23 23 23
Wind_Direction
214 215 215 216 218 219 218 217 216 215 215 214 213 213 211 210 209 208 207 206 206 207 205 203 205 206 208 208 207 206 208 210 209 208 207 206 207 209 209 211 212 212
216 217 218 219 220 220 220 220 220 220 220 220 219 218 216 214 214 213 213 210 210 212 211 210 209 209 212 213 211 210 211 214 216 214 212 211 211 211 212 215 217 220
217 219 220 221 222 222 222 222 223 223 224 224 224 223 220 217 217 217 216 215 215 215 214 215 214 212 215 216 216 216 216 217 219 219 216 215 215 214 217 219 222 225
219 220 221 222 223 223 224 224 225 226 227 227 227 226 223 220 219 219 219 218 219 218 216 216 217 218 219 219 218 219 219 219 219 220 220 219 219 220 222 226 227 229
220 222 223 224 224 225 226 225 226 227 228 229 228 227 226 224 222 222 221 221 221 221 220 219 220 222 223 223 223 222 221 221 221 221 223 224 225 226 228 231 232 233
222 223 224 225 226 226 227 227 226 226 228 230 229 228 228 227 225 224 224 224 224 224 223 223 224 225 226 227 227 226 225 225 224 223 225 227 229 230 232 234 237 237
224 225 226 227 228 228 229 229 228 227 227 229 229 230 230 230 228 227 227 227 227 227 227 228 229 230 231 231 231 231 230 230 229 228 228 228 229 232 233 236 239 240
226 227 228 229 229 230 230 230 229 229 228 229 230 230 230 231 232 230 229 229 229 230 230 230 232 234 234 234 235 235 234 234 234 234 235 233 231 233 235 237 239 241
229 229 229 230 231 231 231 230 230 230 230 230 231 231 231 232 233 233 232 230 231 233 233 233 235 236 237 237 237 237 237 237 237 237 239 239 237 236 237 238 240 243
231 231 230 231 231 232 232 231 231 231 232 232 232 232 232 232 233 234 234 233 233 235 235 236 237 238 239 239 239 240 240 240 240 240 241 242 243 242 240 240 242 246
233 233 232 232 232 232 232 232 231 231 232 233 234 234 234 234 234 234 235 235 236 236 237 238 239 240 241 242 242 243 243 243 243 243 243 244 245 246 245 245 245 248
234 234 234 233 233 233 233 232 232 232 232 234 235 236 235 234 234 235 235 236 237 237 238 239 240 242 243 244 244 244 245 246 246 245 246 247 248 249 249 250 251 252
235 235 234 233 233 234 234 234 233 232 233 233 235 236 236 235 234 235 236 237 238 239 239 240 241 242 244 245 245 245 246 247 248 248 248 248 249 251 252 253 254 255
235 235 234 232 232 232 233 234 234 233 233 233 234 235 236 235 235 235 236 238 239 241 242 242 242 243 244 245 246 247 247 248 250 250 250 251 251 252 253 255 256 257
234 233 233 232 231 232 232 233 233 234 234 234 234 235 235 236 236 236 237 238 239 241 243 244 245 245 245 246 246 248 249 250 251 252 252 253 253 254 255 256 257 259
235 234 233 230 229 231 231 232 233 233 234 235 234 235 235 236 237 238 239 240 241 242 244 245 246 247 248 248 248 249 250 251 252 253 254 255 256 257 257 258 258 259
237 236 233 229 228 229 230 231 232 233 234 235 234 234 236 237 238 240 241 243 244 244 246 247 247 248 249 249 250 250 252 253 254 255 255 256 257 258 259 260 260 261
235 233 229 226 227 228 229 230 232 233 235 236 235 235 236 237 239 240 241 243 245 246 248 249 250 251 251 250 251 251 253 254 255 256 257 257 258 259 261 262 263 264
227 226 223 222 224 226 227 228 230 232 234 236 236 236 237 238 240 240 241 243 244 245 248 249 251 254 254 253 252 252 253 254 255 256 257 258 259 260 262 263 264 266
223 223 222 222 223 224 226 228 230 232 233 234 235 237 238 240 241 241 241 242 244 245 247 248 250 254 257 256 255 255 254 254 255 256 256 257 258 260 261 262 263 264
226 225 223 222 221 222 224 227 229 231 232 234 236 238 240 242 243 243 243 244 245 245 246 248 250 254 256 256 256 256 256 255 255 256 257 257 258 259 260 261 262 263
221 219 216 216 218 219 221 225 229 232 235 237 239 241 243 244 245 246 246 246 247 247 247 248 250 253 255 255 255 256 256 257 257 256 257 258 259 260 260 261 262 263
219 218 217 219 220 222 226 229 232 235 239 241 242 244 245 246 246 247 248 248 249 250 250 250 250 252 254 255 255 256 256 257 258 258 258 258 259 259 260 261 262 262
227 228 230 231 231 233 236 237 237 238 241 243 243 245 246 247 247 248 248 249 250 251 252 252 252 253 254 254 255 256 256 257 258 258 258 259 259 260 260 261 262 263
234 236 237 238 238 239 241 242 242 241 242 243 244 245 247 247 247 248 249 250 250 251 253 254 254 254 255 255 256 256 256 257 257 257 258 259 260 260 261 261 262 263
236 238 239 238 239 240 242 243 244 244 244 245 246 246 247 247 248 248 250 251 252 253 255 257 257 256 255 257 257 257 257 257 257 257 259 260 261 261 262 262 263 264